Stations météo

Publicité
Auch, France (7622): Température de l'air & dewpoint: 10.08.2017 17:00:00 - 16.08.2017 17:00:00 (CEST)Auch, France (7622): Température de l'air 5cm: 10.08.2017 17:00:00 - 16.08.2017 17:00:00 (CEST)Auch, France (7622): Température de l'air -20cm & Température de l'air -100cm: 10.08.2017 17:00:00 - 16.08.2017 17:00:00 (CEST)Auch, France (7622): Vitesse du vent & gusts: 10.08.2017 17:00:00 - 16.08.2017 17:00:00 (CEST)Auch, France (7622): Direction du vent: 10.08.2017 17:00:00 - 16.08.2017 17:00:00 (CEST)Auch, France (7622): reduced air pressure: 10.08.2017 17:00:00 - 16.08.2017 17:00:00 (CEST)Auch, France (7622): visibility: 10.08.2017 17:00:00 - 16.08.2017 17:00:00 (CEST)Auch, France (7622): Ensoleillement: 10.08.2017 17:00:00 - 16.08.2017 17:00:00 (CEST)Auch, France (7622): Quantités de précipitations: 10.08.2017 17:00:00 - 16.08.2017 17:00:00 (CEST)
Date & Time tt [°C] td [°C] tt 5cm [°C] tt -20cm [°C] tt -100cm [°C] ff [km/h] ff [knt] fx [km/h] fx [knt] dd ppp [hPa] vv [km] sd [min] rr [mm]
16.08.2017 17:00:00 24,5 17,7 25,8 23,1 20,9 8 5 17 9 W 1021,0 20 0 0,0
16.08.2017 16:00:00 25,2 17,4 26,4 23,0 21,0 4 2 13 7 W 1020,8 20 0 0,0
16.08.2017 15:00:00 24,6 17,6 26,7 22,9 21,0 5 3 18 10 NW 1021,1 20 0 0,0
16.08.2017 14:00:00 23,7 17,7 26,7 22,7 20,9 8 5 17 9 NW 1021,6 20 0 0,0
16.08.2017 13:00:00 23,2 18,1 25,6 22,6 20,9 8 4 14 8 NNW 1021,5 20 0 0,0
16.08.2017 12:00:00 22,3 17,9 24,0 22,6 20,9 6 4 10 6 NW 1021,6 20 0 0,0
16.08.2017 11:00:00 21,3 18,1 21,5 22,6 20,9 4 2 9 5 WNW 1021,5 20 0 0,0
16.08.2017 10:00:00 20,2 17,8 20,2 22,7 20,9 5 3 8 4 NNW 1021,5 20 0 0,0
16.08.2017 09:00:00 19,7 17,8 19,8 22,8 20,9 5 3 9 5 NNW 1021,5 20 0 0,0
16.08.2017 08:00:00 19,7 18,0 19,6 22,9 20,9 5 3 9 5 NNW 1021,2 20 0 0,0
16.08.2017 07:00:00 19,8 17,9 19,6 22,9 20,9 5 3 9 5 NNW 1020,6 20 0 0,0
16.08.2017 06:00:00 19,9 17,9 19,8 23,0 20,9 4 2 8 5 N 1020,3 20 0 0,0
16.08.2017 05:00:00 20,1 17,9 19,9 23,1 20,9 5 3 8 4 NNW 1020,2 20 0 0,0
16.08.2017 04:00:00 20,3 18,1 20,2 23,2 20,9 3 2 10 6 NW 1020,4 20 0 0,0
16.08.2017 03:00:00 20,8 18,7 20,5 23,2 20,9 4 2 8 4 NW 1020,8 20 0 0,0
16.08.2017 02:00:00 21,1 19,2 20,6 23,3 20,9 0 0 4 2 N 1021,0 20 0 0,0
16.08.2017 01:00:00 21,2 19,1 20,3 23,4 20,9 0 0 5 3 N 1021,2 20 0 0,0
16.08.2017 00:00:00 21,5 18,9 20,3 23,4 20,8 4 2 13 7 NW 1021,4 20 0 0,2
15.08.2017 23:00:00 22,5 18,5 22,0 23,5 20,9 4 2 16 9 NNW 1021,3 20 0 0,0
15.08.2017 22:00:00 22,6 19,2 22,0 23,5 20,8 2 1 10 6 NNW 1020,5 20 0 0,0
15.08.2017 21:00:00 23,6 18,5 22,9 23,5 20,8 3 2 11 6 NNW 1019,7 20 0 0,0
15.08.2017 20:00:00 24,5 18,7 24,6 23,4 20,8 6 3 14 7 NW 1019,0 20 0 0,0
15.08.2017 19:00:00 24,8 19,0 25,2 23,4 20,8 9 5 17 9 NW 1018,9 20 3 0,0
15.08.2017 18:00:00 24,1 18,7 24,7 23,3 20,8 13 7 22 12 NNW 1019,2 20 2 0,0
15.08.2017 17:00:00 24,2 18,6 23,6 23,3 20,8 13 7 22 12 NNW 1019,1 20 16 0,0
15.08.2017 16:00:00 23,1 19,7 21,9 23,3 20,8 12 6 18 10 NW 1019,2 20 0 0,0
15.08.2017 15:00:00 22,0 20,6 20,5 23,2 20,8 8 4 21 11 WSW 1019,2 19 2 1,2
15.08.2017 14:00:00 21,4 19,7 20,5 23,2 20,8 12 7 26 14 SSW 1020,5 14 0 0,6
15.08.2017 13:00:00 21,4 20,0 20,5 23,2 20,8 7 4 17 9 WNW 1019,2 14 0 0,8
15.08.2017 12:00:00 21,7 19,4 20,3 23,3 20,8 6 3 23 13 W 1019,6 19 0 0,4
15.08.2017 11:00:00 21,8 19,0 21,5 23,3 20,8 8 5 22 12 W 1018,4 17 0 0,0
15.08.2017 10:00:00 22,3 19,1 22,1 23,4 20,8 10 5 21 11 S 1017,9 20 27 0,0
15.08.2017 09:00:00 21,2 19,1 19,7 23,5 20,8 13 7 27 15 SE 1017,8 20 0 0,0
15.08.2017 08:00:00 19,9 18,9 18,6 23,6 20,8 0 0 10 6 N 1017,4 14 0 0,0
15.08.2017 07:00:00 20,3 19,1 19,3 23,8 20,8 7 4 15 8 SSE 1017,1 20 0 0,0
15.08.2017 06:00:00 20,6 19,6 19,7 23,9 20,8 6 4 20 11 NE 1016,6 20 0 0,0
15.08.2017 05:00:00 20,5 19,7 19,6 24,0 20,8 8 4 14 8 SSW 1018,1 12 0 0,0
15.08.2017 04:00:00 21,1 19,7 20,0 24,2 20,8 6 3 20 11 S 1017,8 20 0 0,0
15.08.2017 03:00:00 21,2 20,4 20,2 24,3 20,8 6 4 9 5 NNE 1017,4 16 0 0,0
15.08.2017 02:00:00 21,6 19,9 20,2 24,4 20,8 4 2 18 10 ESE 1017,3 20 0 0,4
15.08.2017 01:00:00 22,9 18,9 20,9 24,5 20,8 8 4 33 18 ENE 1015,9 5 0 2,0
15.08.2017 00:00:00 23,5 17,7 22,1 24,6 20,8 11 6 24 13 SE 1014,8 20 0 0,0
14.08.2017 23:00:00 24,3 17,3 23,4 24,7 20,8 10 5 32 17 SSE 1013,8 20 0 0,0
14.08.2017 22:00:00 25,7 17,1 24,6 24,6 20,8 9 5 31 17 SSE 1013,6 20 0 0,0
14.08.2017 21:00:00 28,1 16,4 27,2 24,6 20,8 10 5 29 16 SE 1013,0 20 0 0,0
14.08.2017 20:00:00 30,9 14,9 32,0 24,4 20,8 14 7 32 17 ESE 1012,2 20 60 0,0
14.08.2017 19:00:00 32,8 13,9 35,1 24,1 20,8 16 9 31 17 SE 1012,1 20 60 0,0
14.08.2017 18:00:00 33,9 13,9 37,4 23,7 20,7 15 8 34 19 ESE 1012,2 18 60 0,0
14.08.2017 17:00:00 34,6 12,3 38,8 23,3 20,8 16 8 30 16 E 1012,2 20 60 0,0
14.08.2017 16:00:00 34,4 12,1 38,5 22,8 20,7 13 7 31 17 E 1012,5 20 60 0,0
14.08.2017 15:00:00 33,8 12,7 37,4 22,4 20,8 14 7 29 16 ESE 1013,0 11 60 0,0
14.08.2017 14:00:00 32,4 12,6 36,2 22,1 20,8 14 7 29 15 SE 1013,6 20 60 0,0
14.08.2017 13:00:00 30,9 14,1 33,8 21,8 20,7 13 7 25 13 ESE 1014,1 20 60 0,0
14.08.2017 12:00:00 28,6 14,8 30,5 21,7 20,7 14 8 25 14 ESE 1014,8 20 60 0,0
14.08.2017 11:00:00 26,2 14,3 25,7 21,7 20,7 14 8 26 14 E 1015,1 20 60 0,0
14.08.2017 10:00:00 24,5 14,9 23,2 21,8 20,8 11 6 26 14 ESE 1015,4 20 60 0,0
14.08.2017 09:00:00 20,4 16,4 15,7 22,0 20,8 4 2 11 6 S 1015,8 20 58 0,0
14.08.2017 08:00:00 14,6 14,1 11,7 22,2 20,8 0 0 4 2 N 1016,3 20 17 0,0
14.08.2017 07:00:00 13,4 12,8 10,9 22,4 20,8 0 0 5 3 N 1016,3 20 0 0,0
14.08.2017 06:00:00 13,7 13,1 11,2 22,6 20,8 0 0 4 2 N 1016,5 20 0 0,0
14.08.2017 05:00:00 14,1 13,3 11,3 22,8 20,8 0 0 0 0 N 1016,7 20 0 0,0
14.08.2017 04:00:00 14,6 13,5 11,4 23,0 20,8 0 0 0 0 N 1017,0 20 0 0,0
14.08.2017 03:00:00 15,2 13,6 12,4 23,2 20,8 0 0 3 2 N 1017,1 20 0 0,0
14.08.2017 02:00:00 15,8 13,8 12,8 23,4 20,8 0 0 2 1 N 1017,5 20 0 0,0
14.08.2017 01:00:00 16,8 14,1 13,5 23,5 20,8 0 0 3 2 N 1017,6 20 0 0,0
14.08.2017 00:00:00 17,6 13,9 14,3 23,6 20,8 3 1 4 2 SSW 1017,9 20 0 0,0
13.08.2017 23:00:00 19,4 14,2 15,1 23,7 20,8 0 0 4 2 N 1017,8 20 0 0,0
13.08.2017 22:00:00 22,2 14,8 17,8 23,8 20,8 0 0 6 4 N 1017,5 20 0 0,0
13.08.2017 21:00:00 26,3 12,7 24,9 23,7 20,8 4 2 12 6 ENE 1017,1 20 41 0,0
13.08.2017 20:00:00 27,4 12,2 28,5 23,5 20,8 9 5 16 9 NE 1017,1 20 49 0,0
13.08.2017 19:00:00 28,4 12,7 29,5 23,2 20,8 10 5 18 10 NNE 1017,1 20 40 0,0
13.08.2017 18:00:00 29,0 11,5 30,7 22,8 20,8 2 1 20 11 E 1017,4 20 54 0,0
13.08.2017 17:00:00 28,5 11,5 32,3 22,3 20,8 6 3 20 11 NE 1017,9 18 41 0,0
13.08.2017 16:00:00 28,3 11,4 34,2 21,9 20,8 7 4 20 11 E 1018,4 17 60 0,0
13.08.2017 15:00:00 27,4 12,6 34,2 21,4 20,8 6 3 21 11 NNE 1019,0 17 60 0,0
13.08.2017 14:00:00 26,3 12,0 32,9 21,1 20,8 8 5 22 12 NNE 1019,7 18 60 0,0
13.08.2017 13:00:00 25,5 12,7 30,0 20,9 20,8 9 5 17 9 NE 1020,4 20 60 0,0
13.08.2017 12:00:00 24,2 12,5 28,2 20,7 20,8 9 5 15 8 N 1021,1 20 60 0,0
13.08.2017 11:00:00 23,1 12,4 24,0 20,7 20,8 4 2 10 6 S 1021,5 19 60 0,0
13.08.2017 10:00:00 21,3 14,0 20,2 20,8 20,8 3 2 6 4 SE 1021,6 20 60 0,0
13.08.2017 09:00:00 16,5 15,2 13,6 21,0 20,9 5 3 11 6 S 1021,9 20 60 0,0
13.08.2017 08:00:00 12,8 12,5 9,5 21,2 20,9 5 3 7 4 S 1022,1 20 17 0,0
13.08.2017 07:00:00 11,8 11,3 8,8 21,4 20,9 0 0 3 1 N 1021,9 20 0 0,0
13.08.2017 06:00:00 12,1 11,5 9,2 21,5 20,9 0 0 0 0 N 1021,7 20 0 0,0
13.08.2017 05:00:00 12,5 11,7 9,6 21,8 20,9 0 0 0 0 N 1021,8 20 0 0,0
13.08.2017 04:00:00 13,2 11,9 10,1 21,9 20,9 0 0 2 1 N 1022,0 20 0 0,0
13.08.2017 03:00:00 14,2 12,4 10,8 22,1 20,9 0 0 2 1 N 1022,1 20 0 0,0
13.08.2017 02:00:00 15,4 12,9 12,4 22,2 20,9 0 0 2 1 N 1022,3 20 0 0,0
13.08.2017 01:00:00 16,4 13,3 13,9 22,3 20,9 0 0 3 2 N 1022,6 20 0 0,0
13.08.2017 00:00:00 17,0 13,3 14,3 22,5 20,9 3 2 4 2 S 1023,0 20 0 0,0
12.08.2017 23:00:00 18,1 12,8 15,2 22,5 20,9 0 0 3 2 N 1022,9 20 0 0,0
12.08.2017 22:00:00 19,6 13,1 16,0 22,5 20,9 0 0 4 2 N 1022,6 20 0 0,0
12.08.2017 21:00:00 21,8 11,8 19,4 22,4 20,9 5 3 14 8 N 1022,0 20 8 0,0
12.08.2017 20:00:00 24,5 11,1 27,4 22,2 20,9 9 5 15 8 N 1021,7 20 60 0,0
12.08.2017 19:00:00 25,2 10,3 30,6 21,9 20,9 9 5 16 9 N 1021,8 20 60 0,0
12.08.2017 18:00:00 25,7 9,9 31,1 21,5 21,0 5 3 22 12 NNE 1021,8 20 60 0,0
12.08.2017 17:00:00 25,0 9,3 31,8 21,1 21,0 10 6 22 12 NNW 1022,4 20 60 0,0
12.08.2017 16:00:00 24,9 8,0 31,5 20,7 21,0 9 5 22 12 WNW 1022,9 20 60 0,0
12.08.2017 15:00:00 24,0 8,0 30,6 20,3 21,0 11 6 27 15 N 1023,4 20 60 0,0
12.08.2017 14:00:00 22,7 9,8 29,3 19,9 21,0 9 5 26 14 NE 1023,8 20 60 0,0
12.08.2017 13:00:00 22,3 9,8 28,3 19,7 21,0 10 5 20 11 N 1024,2 20 60 0,0
12.08.2017 12:00:00 20,7 10,8 23,7 19,6 21,0 10 6 22 12 WNW 1024,7 20 45 0,0
12.08.2017 11:00:00 19,8 11,3 19,5 19,6 21,0 6 3 15 8 N 1025,0 20 58 0,0
12.08.2017 10:00:00 18,0 12,0 17,3 19,7 21,0 2 1 5 3 SE 1025,0 20 42 0,0
12.08.2017 09:00:00 14,4 13,9 11,1 19,8 21,0 4 2 9 5 S 1025,0 20 58 0,0
12.08.2017 08:00:00 10,7 10,4 6,2 20,0 21,1 3 2 5 3 SSW 1024,9 19 21 0,0
12.08.2017 07:00:00 9,2 8,7 5,8 20,2 21,1 0 0 0 0 N 1025,0 16 0 0,0
12.08.2017 06:00:00 9,7 9,1 5,9 20,5 21,1 0 0 5 3 N 1024,7 16 0 0,0
12.08.2017 05:00:00 10,0 9,2 6,5 20,7 21,1 3 1 5 3 S 1024,7 17 0 0,0
12.08.2017 04:00:00 10,7 9,8 7,1 20,8 21,1 0 0 2 1 N 1025,0 20 0 0,0
12.08.2017 03:00:00 11,7 10,4 8,3 21,0 21,2 3 2 5 3 S 1024,9 20 0 0,0
12.08.2017 02:00:00 13,0 10,9 9,9 21,2 21,1 0 0 13 7 N 1025,1 20 0 0,0
12.08.2017 01:00:00 13,6 10,0 10,8 21,3 21,2 6 3 8 4 S 1025,1 20 0 0,0
12.08.2017 00:00:00 15,7 11,1 13,6 21,4 21,2 4 2 11 6 SW 1025,1 20 0 0,0
11.08.2017 23:00:00 17,1 11,4 15,3 21,5 21,2 4 2 17 9 W 1025,0 20 0 0,0
11.08.2017 22:00:00 18,1 10,9 16,4 21,5 21,2 7 4 16 9 W 1024,5 20 0 0,0
11.08.2017 21:00:00 19,9 11,1 18,8 21,5 21,2 10 5 28 15 WSW 1023,6 20 44 0,0
11.08.2017 20:00:00 21,4 9,3 20,9 21,4 21,2 10 5 32 17 WSW 1023,2 20 35 0,0
11.08.2017 19:00:00 21,9 9,1 22,2 21,2 21,2 13 7 34 18 W 1023,1 20 41 0,0
11.08.2017 18:00:00 23,2 10,3 22,3 20,9 21,2 17 9 31 17 WSW 1022,9 20 19 0,0
11.08.2017 17:00:00 22,3 8,4 24,3 20,7 21,2 18 10 34 18 W 1023,5 20 20 0,0
11.08.2017 16:00:00 23,1 7,2 24,1 20,4 21,2 20 11 35 19 WNW 1023,5 20 43 0,0
11.08.2017 15:00:00 21,5 8,4 23,3 20,2 21,3 15 8 33 18 NW 1023,6 20 28 0,0
11.08.2017 14:00:00 21,8 10,0 22,8 20,0 21,3 13 7 32 17 WNW 1023,6 20 27 0,0
11.08.2017 13:00:00 21,2 10,4 21,9 19,8 21,3 14 8 35 19 WNW 1024,0 20 26 0,0
11.08.2017 12:00:00 20,0 11,0 21,0 19,7 21,3 16 8 31 17 W 1024,3 20 40 0,0
11.08.2017 11:00:00 19,5 12,3 18,4 19,7 21,3 12 7 34 18 WSW 1024,1 20 54 0,0
11.08.2017 10:00:00 17,5 11,7 16,1 19,8 21,3 17 9 32 18 W 1024,2 20 31 0,0
11.08.2017 09:00:00 15,8 12,4 13,8 19,9 21,3 9 5 18 10 WSW 1024,2 20 15 0,0
11.08.2017 08:00:00 14,4 11,7 13,6 20,0 21,3 10 5 20 11 WSW 1024,1 20 0 0,2
11.08.2017 07:00:00 14,2 11,9 12,8 20,2 21,3 10 5 19 10 WSW 1024,0 20 0 0,0
11.08.2017 06:00:00 13,8 12,2 12,2 20,3 21,4 10 5 17 9 SW 1023,8 20 0 0,0
11.08.2017 05:00:00 13,7 12,3 12,4 20,5 21,4 9 5 16 8 SW 1023,7 20 0 0,0
11.08.2017 04:00:00 13,7 11,9 11,9 20,7 21,4 8 4 14 8 SW 1024,1 20 0 0,0
11.08.2017 03:00:00 14,0 12,0 12,8 20,8 21,4 7 4 15 8 SW 1024,6 20 0 0,0
11.08.2017 02:00:00 14,3 12,0 11,9 21,0 21,4 7 4 13 7 WSW 1025,1 20 0 0,0
11.08.2017 01:00:00 14,8 11,8 12,7 21,1 21,4 5 3 11 6 SW 1025,4 20 0 0,0
11.08.2017 00:00:00 16,1 11,3 14,9 21,2 21,4 6 3 21 11 W 1025,1 20 0 0,0
10.08.2017 23:00:00 17,5 10,8 16,9 21,3 21,4 11 6 22 12 W 1024,7 20 0 0,0
10.08.2017 22:00:00 17,9 10,8 16,9 21,3 21,4 9 5 29 16 W 1024,1 20 0 0,0
10.08.2017 21:00:00 19,0 9,5 17,9 21,3 21,4 13 7 38 21 W 1023,2 20 45 0,0
10.08.2017 20:00:00 20,9 10,1 20,7 21,3 21,5 13 7 31 17 W 1022,6 20 19 0,0
10.08.2017 19:00:00 20,4 12,1 20,9 21,1 21,5 11 6 32 18 WNW 1022,6 20 20 0,0
10.08.2017 18:00:00 20,4 11,9 20,5 21,0 21,5 15 8 33 18 WSW 1022,5 20 19 0,0
10.08.2017 17:00:00 19,0 14,5 17,7 20,8 21,5 15 8 25 14 W 1022,7 20 28 0,0

tt = Température de l'air
td = dewpoint
tt 5cm = Température de l'air 5cm
tt -20cm = Température de l'air -20cm
tt -100cm = Température de l'air -100cm
ff = Vitesse du vent
fx = gusts
dd = Direction du vent
ppp = reduced air pressure
vv = visibility
sd = Ensoleillement
rr = Quantités de précipitations

stations d'obs. à proximité